TimeEST,TemperatureF,Dew PointF,Humidity,Sea Level PressureIn,VisibilityMPH,Wind Direction,Wind SpeedMPH,Gust SpeedMPH,PrecipitationIn,Events,Conditions,WindDirDegrees,DateUTC
12:56 AM,27.0,21.0,78,30.40,10.0,SE,6.9,-,N/A,,Clear,140,2012-12-13 05:56:00
1:56 AM,28.0,21.9,78,30.39,10.0,SSE,5.8,-,N/A,,Clear,150,2012-12-13 06:56:00
2:56 AM,26.1,21.0,81,30.40,10.0,SE,6.9,-,N/A,,Clear,140,2012-12-13 07:56:00
3:56 AM,28.0,21.9,78,30.42,10.0,Calm,Calm,-,N/A,,Clear,0,2012-12-13 08:56:00
4:56 AM,25.0,21.0,85,30.42,10.0,SE,5.8,-,N/A,,Clear,140,2012-12-13 09:56:00
5:56 AM,26.1,21.9,84,30.43,9.0,SSE,5.8,-,N/A,,Clear,150,2012-12-13 10:56:00
6:56 AM,26.1,21.9,84,30.44,8.0,SSE,4.6,-,N/A,,Clear,160,2012-12-13 11:56:00
7:56 AM,26.1,21.9,84,30.44,7.0,SSE,4.6,-,N/A,,Clear,160,2012-12-13 12:56:00
8:56 AM,28.4,24.8,86,30.40,5.0,SE,3.5,-,N/A,,Partly Cloudy,140,2012-12-13 13:56:00
9:56 AM,34.0,26.1,73,30.43,10.0,South,6.9,-,N/A,,Partly Cloudy,170,2012-12-13 14:56:00
10:56 AM,37.0,26.1,65,30.43,10.0,South,10.4,-,N/A,,Partly Cloudy,180,2012-12-13 15:56:00
11:56 AM,39.9,26.1,58,30.40,10.0,South,6.9,-,N/A,,Partly Cloudy,190,2012-12-13 16:56:00
12:56 PM,43.0,25.0,49,30.39,10.0,SW,6.9,-,N/A,,Partly Cloudy,230,2012-12-13 17:56:00
1:56 PM,44.1,26.1,49,30.36,10.0,SSW,8.1,-,N/A,,Partly Cloudy,210,2012-12-13 18:56:00
2:56 PM,45.0,21.9,40,30.35,10.0,SW,6.9,-,N/A,,Partly Cloudy,220,2012-12-13 19:56:00
3:56 PM,43.0,24.1,47,30.33,10.0,South,5.8,-,N/A,,Mostly Cloudy,190,2012-12-13 20:56:00
4:56 PM,41.0,24.1,51,30.32,10.0,SSW,4.6,-,N/A,,Mostly Cloudy,200,2012-12-13 21:56:00
7:56 PM,37.9,23.0,55,30.31,10.0,South,8.1,-,N/A,,Clear,180,2012-12-14 00:56:00
8:56 PM,34.0,23.0,64,30.30,10.0,South,9.2,-,N/A,,Clear,170,2012-12-14 01:56:00
9:56 PM,36.0,25.0,64,30.29,10.0,South,8.1,-,N/A,,Clear,180,2012-12-14 02:56:00
10:56 PM,37.0,26.1,65,30.28,10.0,South,9.2,-,N/A,,Clear,180,2012-12-14 03:56:00
11:56 PM,36.0,27.0,70,30.27,10.0,SSW,10.4,-,N/A,,Clear,200,2012-12-14 04:56:00